sat.trackr.live / text

‹ back to catalog

STARLINK-1623

NORAD 46129 · 2020-057N

PAYLOAD ACTIVE UNKNOWN

§ Identity

Operator
Country
US
Launch date
2020-08-18
Launch site
AFETR
Launch vehicle
Mass (kg)
RCS (m²)

Purposes: comms

External: N2YO · Heavens-Above · Gunter

§ Orbital elements

Epoch: 2026-05-24T18:25:54.776640Z

Period
91.63 min
Inclination
53.0432°
Eccentricity
0.0004301
Mean motion
15.71461358 rev/d
Perigee alt
351.8 km
Apogee alt
357.6 km
Semi-major
6,732.9 km
B*
6.6394e-4
RAAN
244.1448°
Arg perigee
346.0068°
Mean anomaly
14.0829°
Rev number
31,881

§ Raw data

STARLINK-16231 46129U 20057N   26144.76799510  .00086892  00000+0  66394-3 0  99902 46129  53.0432 244.1448 0004301 346.0068  14.0829 15.71461358318819

JSON: /api/v1/satellites/46129 · /tle

For live sub-satellite position, see the globe view (requires WebGL).

§ Visibility from observer

Set your observer location to see the next 7 days of passes ≥ 10°. The values pass through the URL so the page stays shareable.

No JS? Fill the form by hand. The geolocation button needs JavaScript.